Showing default

TRANSIT 2A, 45

Orbit data source: Space-Track

TRANSIT 2A, 45 is a payload satellite owned by USN BuWeps (US) in LEO that was launched on Wed, 22 Jun 1960 UTC via a THOR ABLESTAR launch vehicle from the Air Force Eastern Test Range (AFETR). Payload-class satellites include a variety of spacecraft equipped with specific instruments for various scientific and technological missions. These include communications satellites like Starlink; space stations such as the ISS; scientific satellites like the Hubble; Earth observation satellites from companies like Planet Labs, Umbra, and HawkEye 360; GPS; miniature CubeSats for education and research; and military/defense satellites.

Loading next visibility...
Identifier
45, 1960-007A
Orbit
LEO
Country
Flag of USUS
Related business
Manufacturer
APL
Mission
Spacecraft
Bus & Motor
TRANSIT 1, Unknown motor
Mass
100 kg wet, 100 kg dry
Launch date (UTC)
1960-06-22 (66 years ago)
Launch vehicle
THOR ABLESTAR
Launch site
Air Force Eastern Test Range (AFETR)
Object type
Payload
Rocket body
Debris
Shape & HBR
SPHERE, 1.1 m
Radar Cross Section
Medium (>0.1 m² and <1 m²)

Expand to show TLE details & history
Last TLE update: 15 hours ago

TLE from 15 hours ago
0 TRANSIT 2A
1 00045U 60007A   26264.27451474  .00000120  00000-0  55849-4 0  9994
2 00045  66.6917 106.0592 0240866  88.9771 273.8914 14.36026191393849
Epoch: 2026-09-21T06:35Z
TLE epoch observation values (Epoch: 2026-09-21T06:35:18.073Z)
Latitude
-0.0001°
Longitude
7.07716°
Altitude
766.221 km
Speed
7.475 km/s
True Right ascension
07h 04m 14s
True Declination
0° 00' 00"
Sunlit
Object was in daylight at epoch
Visualization orbit readout
Latitude
Unknown
Longitude
Unknown
Altitude
Unknown
Speed
Unknown
Apparent Right ascension
Unknown
Apparent Declination
Unknown
Sunlit
N/A
Visualization observer readout
Local Sidereal Time
14:51:29
Azimuth
Unknown
Elevation
Unknown
Doppler factor
Unknown
Orbital elements
Apogee altitude
942.203 km
Perigee altitude
597.853 km
Semi-major axis
7,148.165 km
Eccentricity
0.02409
Inclination
66.6917°
RAAN
106.0592°
Arg. of periapsis
88.9771°
True anomaly
271.13307°
Mean anomaly
273.8914°
Eccentric anomaly
272.51267°
Mean motion
3.5913 °/min
Orbital period
100.24 mins
BSTAR
0.000055849
Loading maneuver chart data...
Computing Atmospheric mass density...
Loading historical data...
Loading historical data...
Loading historical data...
Loading historical data...
Loading historical data...
Loading historical data...
Loading historical data...

Documentation

Showing up to 5 results
|